FW8095 Weather Reports


time (UTC)temp
C
wind
direction
speed
KPH
gust
KPH
rain 1hr
cm
rain 24hr
cm
rain mn
cm
humidity
%
barometer
mb
20260902150047 34 304 1.6 3.2 0.00 0.00 0.00 60 1020.3
20260902144545 33 288 0.0 1.6 0.00 0.00 0.00 64 1020.3
20260902143044 32 0 0.0 3.2 0.00 0.00 0.00 70 1020.3
20260902141539 31 135 0.0 4.8 0.00 0.00 0.00 71 1020.4
20260902140045 30 0 0.0 1.6 0.00 0.00 0.00 74 1020.3
20260902134552 28 0 0.0 1.6 0.00 0.00 0.00 77 1020.3
20260902133047 27 0 0.0 1.6 0.00 0.00 0.00 82 1020.4
20260902131546 26 0 0.0 1.6 0.00 0.00 0.00 85 1020.3
20260902130043 25 136 0.0 1.6 0.00 0.00 0.00 87 1020.1
20260902124548 25 0 0.0 0.0 0.00 0.00 0.00 90 1020.1
20260902123053 24 0 0.0 0.0 0.00 0.00 0.00 91 1020.1
20260902121544 23 0 0.0 0.0 0.00 0.00 0.00 93 1020.0
20260902120043 23 0 0.0 0.0 0.00 0.00 0.00 93 1020.0
20260902114546 23 0 0.0 0.0 0.00 0.00 0.00 93 1019.8
20260902113044 23 0 0.0 0.0 0.00 0.00 0.00 93 1019.7
20260902111543 23 0 0.0 0.0 0.00 0.00 0.00 92 1019.6
20260902110047 23 0 0.0 0.0 0.00 0.00 0.00 92 1019.4
20260902104545 23 0 0.0 0.0 0.00 0.00 0.00 92 1019.3
20260902103045 23 0 0.0 0.0 0.00 0.00 0.00 91 1019.3
20260902101538 23 0 0.0 0.0 0.00 0.00 0.00 91 1019.1
20260902100047 23 0 0.0 0.0 0.00 0.00 0.00 91 1019.1
20260902094545 23 0 0.0 0.0 0.00 0.00 0.00 90 1018.9
20260902093040 23 0 0.0 0.0 0.00 0.00 0.00 89 1018.8
20260902091547 23 0 0.0 0.0 0.00 0.00 0.00 89 1018.7
20260902090045 24 0 0.0 0.0 0.00 0.00 0.00 88 1018.5
20260902084546 24 0 0.0 0.0 0.00 0.00 0.00 87 1018.4
20260902083041 24 0 0.0 0.0 0.00 0.00 0.00 87 1018.3
20260902081547 24 0 0.0 0.0 0.00 0.00 0.00 86 1018.2
20260902080046 24 0 0.0 0.0 0.00 0.00 0.00 86 1018.2
20260902074554 25 0 0.0 0.0 0.00 0.00 0.00 85 1018.2
20260902073042 25 0 0.0 0.0 0.00 0.00 0.00 85 1018.2
20260902071548 25 0 0.0 0.0 0.00 0.00 0.00 85 1018.2
20260902070051 25 0 0.0 0.0 0.00 0.00 0.00 86 1018.2
20260902064546 25 0 0.0 0.0 0.00 0.00 0.00 86 1018.3
20260902063046 25 0 0.0 0.0 0.00 0.00 0.00 86 1018.3
20260902061558 25 0 0.0 0.0 0.00 0.00 0.00 85 1018.4
20260902060056 25 0 0.0 0.0 0.00 0.00 0.00 85 1018.3
20260902054604 25 0 0.0 0.0 0.00 0.00 0.00 85 1018.3
20260902053052 25 0 0.0 0.0 0.00 0.00 0.00 84 1018.4
20260902051547 25 0 0.0 0.0 0.00 0.00 0.00 83 1018.3
20260902050042 26 0 0.0 0.0 0.00 0.00 0.00 82 1018.3
20260902044541 26 0 0.0 0.0 0.00 0.00 0.00 83 1018.4
20260902043049 26 0 0.0 0.0 0.00 0.00 0.00 82 1018.6
20260902041546 26 0 0.0 0.0 0.00 0.00 0.00 80 1018.6
20260902040049 26 0 0.0 0.0 0.00 0.00 0.00 80 1018.7
20260902034541 26 0 0.0 0.0 0.00 0.00 0.00 79 1018.6
20260902033040 26 0 0.0 0.0 0.00 0.00 0.00 79 1018.6
20260902031549 27 0 0.0 0.0 0.00 0.00 0.00 78 1018.6
20260902030042 27 0 0.0 0.0 0.00 0.00 0.00 78 1018.6
20260902024541 27 0 0.0 0.0 0.00 0.00 0.00 76 1018.6
20260902023055 27 0 0.0 0.0 0.00 0.00 0.00 75 1018.4
20260902021545 28 0 0.0 0.0 0.00 0.00 0.00 72 1018.4
20260902020045 28 0 0.0 0.0 0.00 0.00 0.00 72 1018.3
20260902014540 28 0 0.0 0.0 0.00 0.00 0.00 71 1018.0
20260902013051 28 0 0.0 0.0 0.00 0.00 0.00 69 1017.7
20260902011538 29 0 0.0 0.0 0.00 0.00 0.00 68 1017.6
20260902010045 29 0 0.0 0.0 0.00 0.00 0.00 67 1017.5
20260902004546 30 0 0.0 0.0 0.00 0.00 0.00 66 1017.4
20260902003043 30 0 0.0 0.0 0.00 0.00 0.00 64 1017.3
20260902001556 31 0 0.0 0.0 0.00 0.00 0.00 62 1017.4
20260902000043 31 0 0.0 0.0 0.00 0.00 0.00 60 1017.5
20260901234545 32 0 0.0 1.6 0.00 0.00 0.00 58 1017.5
20260901233039 32 265 0.0 3.2 0.00 0.00 0.00 56 1017.6
20260901231539 32 64 0.0 4.8 0.00 0.00 0.00 55 1017.5
20260901230046 33 0 0.0 4.8 0.00 0.00 0.00 54 1017.7
20260901224549 33 274 0.0 4.8 0.00 0.00 0.00 54 1017.5
20260901223051 33 259 1.6 4.8 0.00 0.00 0.00 53 1017.4
20260901221558 33 110 0.0 3.2 0.00 0.00 0.00 52 1017.3
20260901220054 33 263 0.0 4.8 0.00 0.00 0.00 52 1017.4
20260901214541 33 0 1.6 4.8 0.00 0.00 0.00 49 1017.4
20260901213050 33 0 0.0 8.0 0.00 0.00 0.00 51 1017.4
20260901211547 34 94 1.6 8.0 0.00 0.00 0.00 49 1017.5
20260901210046 34 99 1.6 8.0 0.00 0.00 0.00 48 1017.6
20260901204543 34 68 1.6 6.4 0.00 0.00 0.00 51 1017.6
20260901203054 35 114 0.0 4.8 0.00 0.00 0.00 50 1017.8
20260901201546 35 219 1.6 6.4 0.00 0.00 0.00 49 1018.1
20260901200042 35 167 1.6 9.7 0.00 0.00 0.00 49 1018.3
20260901194545 36 269 1.6 4.8 0.00 0.00 0.00 45 1018.4
20260901193051 36 0 0.0 6.4 0.00 0.00 0.00 46 1018.6
20260901191557 35 101 1.6 3.2 0.00 0.00 0.00 47 1018.8
20260901190048 36 126 3.2 8.0 0.00 0.00 0.00 46 1019.1
20260901184548 36 98 1.6 8.0 0.00 0.00 0.00 45 1019.3
20260901183048 35 101 1.6 6.4 0.00 0.00 0.00 48 1019.4
20260901181558 35 105 1.6 8.0 0.00 0.00 0.00 47 1019.5
20260901180046 35 32 0.0 4.8 0.00 0.00 0.00 49 1019.3
20260901174549 36 250 0.0 8.0 0.00 0.00 0.00 49 1019.8
20260901173055 36 99 1.6 4.8 0.00 0.00 0.00 49 1019.9
20260901171600 35 105 3.2 8.0 0.00 0.00 0.00 51 1019.9
20260901170050 35 272 3.2 6.4 0.00 0.00 0.00 51 1020.2
20260901164548 35 96 1.6 6.4 0.00 0.00 0.00 53 1020.3
20260901163042 35 113 3.2 4.8 0.00 0.00 0.00 53 1020.3
20260901161555 35 44 1.6 4.8 0.00 0.00 0.00 53 1020.6
20260901160049 35 106 1.6 4.8 0.00 0.00 0.00 54 1020.6
20260901154555 34 97 1.6 6.4 0.00 0.00 0.00 57 1020.7
20260901153052 33 93 1.6 4.8 0.00 0.00 0.00 60 1020.8
20260901151545 33 105 3.2 4.8 0.00 0.00 0.00 61 1020.9